Date,TemperatureHighF,TemperatureAvgF,TemperatureLowF,DewpointHighF,DewpointAvgF,DewpointLowF,HumidityHigh,HumidityAvg,HumidityLow,PressureMaxIn,PressureMinIn,WindSpeedMaxMPH,WindSpeedAvgMPH,GustSpeedMaxMPH,PrecipitationSumIn
2013-1-1,68.0,58.3,50.0,51.8,43.4,34.8,69,58,41,30.27,30.02,4,1,8,0.00
2013-1-2,64.8,59.1,53.4,53.3,47.8,41.3,76,67,54,30.21,29.98,4,1,10,0.00
2013-1-3,53.6,50.7,46.8,47.5,43.7,40.4,84,77,68,30.35,30.15,3,0,8,0.14
2013-1-4,56.5,45.7,36.7,41.1,25.3,-6.9,82,53,8,30.43,30.32,4,1,8,0.01
2013-1-5,46.4,40.1,35.4,34.4,29.8,22.1,76,67,55,30.44,30.36,2,0,6,0.00
2013-1-6,55.4,50.2,46.0,42.7,38.8,30.1,75,65,39,30.37,30.18,4,0,6,0.07
2013-1-7,59.2,49.0,41.7,38.9,23.4,-3.0,73,43,8,30.47,30.25,6,1,11,0.00
2013-1-8,70.9,55.3,44.8,46.2,37.3,29.7,74,52,31,30.47,30.37,4,1,9,0.00
2013-1-9,72.9,63.2,54.9,55.1,49.7,43.8,80,63,43,30.47,30.38,3,0,8,0.00
2013-1-10,70.3,60.1,54.7,59.3,51.9,39.0,92,77,36,30.52,30.42,4,0,11,0.01
2013-1-11,77.7,64.4,56.5,66.0,55.9,48.8,94,76,38,30.43,30.26,5,0,9,0.03
2013-1-12,81.0,68.0,60.8,65.4,55.0,43.3,90,68,28,30.29,30.18,4,0,7,0.00
2013-1-13,77.7,65.7,55.8,62.8,55.1,49.0,85,70,38,30.27,30.15,4,0,9,0.00
2013-1-14,80.1,67.8,61.2,65.3,56.7,47.9,92,70,34,30.29,30.19,5,1,15,0.02
2013-1-15,78.3,68.1,61.7,61.7,57.5,53.5,85,70,45,30.25,30.10,5,1,11,0.00
2013-1-16,80.1,69.8,64.4,62.6,55.0,42.6,86,63,28,30.15,30.03,7,1,14,0.00
2013-1-17,77.9,63.7,47.5,60.5,48.9,28.3,82,61,30,30.12,29.82,8,2,24,0.10
2013-1-18,56.5,46.9,39.6,32.3,14.7,-5.3,66,34,10,30.57,30.12,11,2,19,0.00
2013-1-19,65.1,50.8,39.4,39.4,21.0,-0.8,70,35,10,30.55,30.31,4,1,9,0.00
2013-1-20,70.7,55.9,46.6,44.7,21.5,-6.8,74,38,7,30.31,30.12,4,0,10,0.00
2013-1-21,70.0,54.8,41.4,31.5,12.8,-4.4,56,25,7,30.18,30.04,4,0,11,0.00
2013-1-22,58.3,49.1,40.1,14.3,-0.5,-12.5,33,13,8,30.36,30.12,6,1,12,0.00
2013-1-23,55.9,44.8,35.8,26.1,-0.0,-15.4,44,17,7,30.46,30.26,4,1,8,0.00
2013-1-24,70.0,53.1,36.0,31.4,11.0,-13.0,43,21,9,30.55,30.18,8,2,15,0.00
2013-1-25,52.7,42.0,30.0,32.4,11.7,-8.4,48,29,18,30.54,30.22,5,1,13,0.00
2013-1-26,61.7,48.9,39.9,27.8,20.2,1.6,50,34,9,30.35,30.19,5,1,8,0.00
2013-1-31,53.8,50.5,44.2,41.7,16.1,-9.0,64,30,7,30.51,29.89,8,3,15,0.30
2013-2-1,51.4,46.1,44.2,4.3,-2.3,-8.9,18,13,9,30.26,30.23,3,1,9,0.00
2013-2-2,61.5,46.6,31.3,31.9,10.2,-16.1,57,26,8,30.45,30.18,4,1,8,0.00
2013-2-3,53.8,48.4,44.1,30.3,12.0,-3.7,48,25,10,30.18,30.09,5,1,14,0.00
2013-2-4,54.9,45.1,35.8,28.8,14.3,-5.0,55,32,9,30.23,30.11,3,0,4,0.00
2013-2-5,71.1,53.2,39.4,41.8,30.6,8.5,70,47,9,30.16,30.03,6,1,12,0.00
2013-2-6,73.9,59.2,50.0,45.5,34.4,8.3,71,45,9,30.26,30.10,4,1,8,0.00
2013-2-7,61.0,56.3,48.2,54.5,49.7,37.8,89,79,63,30.25,29.77,4,0,9,0.63
2013-2-8,66.7,57.1,49.3,54.3,40.3,26.9,89,58,23,30.13,29.77,5,1,12,0.02
2013-2-9,55.2,47.4,41.2,42.1,22.1,-6.5,65,41,8,30.43,30.13,4,1,8,0.00
2013-2-10,68.4,53.9,38.8,47.4,33.7,22.9,73,50,19,30.48,30.27,5,1,11,0.00
2013-2-11,66.0,63.3,60.4,60.5,56.1,46.7,85,78,56,30.31,30.13,4,1,11,0.90
2013-2-12,61.0,57.1,51.3,57.0,51.1,43.5,90,81,56,30.21,29.95,4,0,12,1.54
2013-2-13,73.8,60.0,49.8,68.6,47.0,18.8,98,69,15,29.98,29.76,9,1,21,0.17
2013-2-14,54.9,50.4,45.0,40.7,28.5,13.1,70,46,20,30.16,29.91,4,0,9,0.00
2013-2-15,63.7,50.9,40.3,41.9,25.7,0.9,79,46,8,30.19,30.05,4,1,7,0.00
2013-2-16,58.6,44.9,36.7,40.3,29.6,15.9,75,57,23,30.11,29.91,9,1,18,0.06
2013-2-17,38.1,34.6,31.5,17.5,2.3,-18.5,46,26,7,30.40,30.10,6,1,13,0.00
2013-2-18,47.3,37.5,29.8,20.3,7.0,-12.8,45,30,7,30.51,30.35,2,0,4,0.00
2013-2-19,68.7,53.1,39.0,51.8,38.5,19.9,78,60,16,30.35,30.06,7,1,15,0.23
2013-2-20,52.3,46.6,36.3,45.0,21.1,-12.2,78,43,7,30.24,30.12,4,0,8,0.00
2013-2-21,64.9,49.8,39.0,40.4,23.6,-2.2,75,44,7,30.27,30.17,3,0,7,0.00
2013-2-22,64.2,55.6,49.3,59.3,43.8,29.4,85,66,39,30.28,30.09,6,1,11,0.36
2013-2-23,62.4,52.3,45.9,60.9,49.4,41.3,96,90,84,30.13,29.85,5,1,9,1.31
2013-2-24,67.6,56.4,49.5,55.8,42.1,8.7,95,67,11,30.08,29.83,6,1,11,0.01
2013-2-25,52.0,48.2,43.5,45.9,40.3,34.0,85,74,60,30.17,30.02,7,1,14,0.17
2013-2-26,72.9,63.4,48.9,69.7,55.6,33.6,99,78,31,30.03,29.66,12,2,26,0.46
2013-2-27,64.9,55.5,49.6,46.1,23.8,5.8,66,32,11,29.98,29.77,6,1,14,0.00
2013-2-28,56.7,51.4,47.3,27.6,16.8,-3.9,46,28,9,29.98,29.89,6,1,12,0.00
2013-3-1,52.2,46.9,41.5,16.1,7.8,-7.8,31,21,8,30.03,29.96,4,1,8,0.00
2013-3-2,54.5,45.1,38.8,21.2,13.9,-5.0,45,30,8,30.02,29.92,5,1,12,0.00
2013-3-3,46.0,40.3,34.2,22.0,8.2,-13.1,55,30,7,30.11,29.97,5,1,11,0.00
2013-3-4,52.3,40.5,31.3,24.2,6.9,-17.2,44,26,7,30.25,30.10,4,1,8,0.00
2013-3-5,65.5,55.1,44.2,44.7,29.3,2.6,70,42,8,30.22,29.79,8,2,20,0.00
2013-3-6,60.8,48.4,42.3,43.4,11.1,-11.8,54,25,7,30.16,29.78,8,2,24,0.03
2013-3-7,58.5,45.4,38.1,27.8,13.8,-7.3,54,30,8,30.31,30.15,6,1,11,0.00
2013-3-8,48.0,42.5,38.3,27.9,12.4,-7.8,55,31,9,30.37,30.27,4,1,11,0.00
2013-3-9,59.5,45.9,39.0,30.1,14.8,-5.4,55,31,9,30.39,30.31,4,0,10,0.00
2013-3-10,63.7,48.2,41.0,35.4,26.9,-1.4,70,50,7,30.36,30.29,2,0,4,0.00
2013-3-11,72.0,60.6,47.8,51.0,42.0,32.4,76,53,24,30.30,29.99,5,1,11,0.00
2013-3-12,71.1,65.2,56.7,58.9,49.1,25.6,77,58,23,30.02,29.88,6,2,16,0.08
2013-3-13,59.4,51.9,41.3,35.3,25.0,-2.6,52,37,8,30.21,29.97,6,1,10,0.00
2013-3-14,47.5,41.6,38.1,15.3,-0.8,-12.7,34,17,9,30.38,30.27,5,1,13,0.00
2013-3-15,43.7,42.3,41.2,20.2,18.0,15.0,40,37,34,30.30,30.26,1,0,2,0.00
2013-3-16,71.8,62.1,55.8,36.0,23.2,6.0,38,24,9,30.10,29.94,6,2,12,0.00
2013-3-17,79.5,66.1,59.7,40.7,30.5,9.7,47,29,7,30.12,30.02,5,1,13,0.00
2013-3-18,66.9,62.6,58.5,56.1,48.0,34.0,75,60,33,30.16,29.93,5,1,11,0.11
2013-3-19,76.1,62.2,55.6,54.3,40.2,-0.5,84,55,8,30.06,29.89,7,1,15,0.04
2013-3-20,57.2,50.6,45.5,25.0,6.6,-9.8,44,19,7,30.16,29.90,2,0,4,0.00
2013-3-21,48.0,45.9,43.7,28.1,9.5,-8.4,52,26,9,29.95,29.86,5,1,14,0.00
2013-3-22,54.0,49.2,41.5,19.9,9.3,-13.4,29,20,8,30.14,30.03,4,0,7,0.00
2013-3-23,55.6,49.5,44.6,46.9,34.7,14.0,79,60,21,30.13,29.95,4,0,13,0.41
2013-3-24,65.7,54.2,47.7,63.7,49.8,42.4,94,85,76,29.96,29.51,7,1,17,1.81
2013-3-25,57.6,49.6,44.6,45.0,5.9,-99.9,84,45,1,30.04,29.65,7,2,18,0.00
2013-3-26,50.9,42.7,36.7,7.2,-12.5,-99.9,28,13,1,30.26,30.04,4,1,13,0.00
2013-3-27,50.7,42.2,35.4,17.1,5.3,-31.5,44,25,2,30.36,30.26,5,1,11,0.00
2013-3-28,49.6,42.0,37.0,26.3,9.8,-9.7,54,28,9,30.38,30.29,4,1,10,0.00
2013-3-29,55.2,45.6,37.6,29.3,19.0,-8.3,59,39,8,30.43,30.32,2,0,4,0.00
2013-3-30,68.7,57.8,51.8,39.8,29.6,4.8,59,38,8,30.33,30.17,4,1,8,0.00
2013-3-31,75.9,65.5,59.0,42.1,35.4,18.3,49,35,13,30.18,29.97,7,2,14,0.01
2013-4-1,79.3,68.4,61.3,52.0,37.8,13.9,63,37,10,30.02,29.91,5,1,10,0.01
2013-4-2,63.0,57.2,50.7,44.5,29.4,0.5,56,38,8,30.22,30.01,4,0,8,0.00
2013-4-3,69.8,57.1,51.3,46.7,31.1,-0.3,75,43,8,30.32,30.14,4,1,11,0.00
2013-4-4,64.0,57.0,51.4,59.4,40.9,16.4,85,59,22,30.33,29.91,5,1,18,0.25
2013-4-5,61.7,52.1,45.3,45.5,39.0,30.0,81,64,31,30.11,29.94,8,1,12,0.11
2013-4-6,70.7,57.0,46.6,43.4,16.6,-99.9,77,46,1,30.32,30.10,4,1,11,0.00
2013-4-7,76.1,62.3,50.5,54.4,40.6,-0.6,80,52,5,30.33,30.22,5,1,9,0.00
2013-4-8,82.0,66.9,54.5,56.5,44.6,23.4,78,50,12,30.28,30.19,5,1,13,0.00
2013-4-9,85.5,70.7,59.9,61.2,45.9,5.7,78,49,5,30.31,30.20,5,1,11,0.00
2013-4-10,83.5,70.6,60.4,59.4,47.7,17.0,77,51,9,30.26,30.10,6,1,11,0.00
2013-4-11,78.6,71.3,64.4,65.4,60.2,55.3,81,69,55,30.11,29.92,6,1,11,0.00
2013-4-12,79.9,72.0,68.5,67.8,63.6,59.4,86,75,59,29.94,29.80,7,2,14,0.39
2013-4-13,71.2,63.6,56.8,62.1,35.4,6.1,79,41,8,30.10,29.90,4,0,9,0.00
2013-4-14,72.0,64.0,54.9,58.4,49.5,45.1,78,61,43,30.17,30.01,3,0,8,0.17
2013-4-15,73.9,67.1,63.3,63.6,58.3,49.5,88,75,43,30.23,29.95,4,0,9,0.38
2013-4-16,79.0,68.5,60.3,62.4,51.6,37.6,87,60,24,30.32,30.23,4,0,7,0.01
2013-4-17,82.6,70.2,62.1,65.8,50.9,29.4,88,57,15,30.31,30.22,4,0,6,0.00
2013-4-18,81.9,72.5,64.4,66.9,54.6,40.5,85,58,24,30.23,30.10,4,1,8,0.00
2013-4-19,81.9,73.7,68.7,66.2,62.2,57.4,83,68,49,30.11,29.93,8,2,20,0.00
2013-4-20,70.2,56.7,48.9,65.1,39.0,7.6,84,57,14,30.32,30.00,4,1,12,0.00
2013-4-21,69.3,57.4,46.6,38.9,30.5,12.5,71,41,12,30.41,30.30,7,1,18,0.00
2013-4-22,71.6,58.8,49.6,34.8,22.6,6.3,47,27,8,30.37,30.19,4,1,13,0.00
2013-4-23,68.5,58.8,53.6,44.9,39.3,33.0,65,49,32,30.29,30.21,4,1,9,0.00
2013-4-24,80.1,65.0,51.3,56.0,41.2,13.3,79,49,9,30.27,30.14,6,1,11,0.00
2013-4-25,86.0,70.7,64.8,60.8,51.4,20.3,81,56,9,30.30,30.16,5,0,12,0.00
2013-4-26,71.2,63.1,57.4,59.0,46.7,10.4,84,63,10,30.46,30.29,4,0,13,0.00
2013-4-27,73.6,64.2,56.7,53.7,38.0,8.9,74,45,9,30.42,30.31,3,0,9,0.00
2013-4-28,74.8,67.3,58.6,60.7,51.8,44.0,79,59,37,30.31,30.12,6,1,11,0.00
2013-4-29,82.6,70.2,64.2,64.9,56.8,43.9,82,65,27,30.14,30.02,4,1,14,0.54
2013-4-30,74.7,67.9,63.9,63.3,58.7,50.6,89,74,47,30.17,30.03,4,0,9,0.02
2013-5-1,73.0,65.6,60.3,56.7,52.0,40.8,81,63,33,30.25,30.14,4,0,12,0.00
2013-5-2,75.0,67.7,63.7,59.0,54.7,46.1,75,64,41,30.25,30.18,4,1,14,0.02
2013-5-3,68.9,64.0,60.4,58.4,50.1,31.2,84,63,31,30.18,30.08,4,1,14,0.04
2013-5-4,66.4,62.8,59.9,56.0,50.4,40.1,77,64,45,30.09,29.97,5,1,17,0.09
2013-5-5,70.3,66.1,62.6,61.6,57.3,52.5,82,74,56,29.98,29.86,5,1,14,0.33
2013-5-6,75.4,68.3,59.7,44.2,29.2,-0.5,55,28,5,30.00,29.91,4,1,11,0.00
2013-5-7,69.3,62.2,55.8,54.2,44.7,36.8,70,54,34,30.06,29.97,5,0,11,0.13
2013-5-8,80.8,65.5,53.6,51.2,39.8,-7.3,72,47,4,30.13,30.03,4,1,13,0.00
2013-5-9,85.8,73.0,65.3,53.8,37.7,-99.9,64,37,1,30.18,30.09,4,1,11,0.00
2013-5-10,84.7,74.6,66.4,52.2,41.2,15.7,56,33,8,30.18,30.08,5,1,12,0.00
2013-5-11,84.6,75.9,71.4,62.0,48.8,18.1,70,43,9,30.10,29.95,5,1,13,0.00
2013-5-12,82.6,74.1,69.3,58.4,43.8,11.2,62,40,9,30.07,29.91,4,1,10,0.00
2013-5-13,69.1,61.6,57.7,27.1,14.4,-0.2,30,17,8,30.23,30.06,4,1,8,0.00
2013-5-14,70.2,59.8,52.2,36.6,28.7,4.3,53,34,8,30.34,30.21,3,0,8,0.00
2013-5-15,79.9,69.0,63.3,43.6,33.1,8.9,45,29,9,30.26,30.09,4,1,13,2.52
2013-5-16,85.1,75.9,69.1,49.9,37.7,19.1,46,27,9,30.15,30.06,4,1,10,0.00
2013-5-17,88.3,75.8,69.1,65.5,50.7,15.3,76,47,8,30.19,30.10,8,1,13,0.00
2013-5-18,86.7,75.5,67.3,70.0,65.9,62.3,94,73,50,30.23,30.15,5,1,11,0.00
2013-5-19,86.4,75.3,67.8,69.6,67.1,61.2,92,76,58,30.20,30.13,5,1,8,0.00
2013-5-20,82.9,75.7,71.2,72.5,68.8,66.6,88,80,65,30.19,30.10,7,1,12,0.14
2013-5-21,76.8,71.8,65.1,71.1,67.5,60.6,92,86,77,30.19,30.05,8,0,15,2.14
2013-5-22,87.1,74.6,64.8,70.2,66.7,62.7,94,78,53,30.09,30.00,4,1,8,0.00
2013-5-23,85.3,75.4,68.0,71.7,67.5,22.7,90,78,14,30.03,29.91,8,1,12,0.00
2013-5-24,88.2,75.8,64.2,67.7,57.1,41.5,83,54,27,30.24,29.92,8,2,14,0.00
2013-5-25,84.6,65.9,54.1,54.6,46.3,27.4,72,52,15,30.36,30.22,6,1,11,0.00
2013-5-26,89.6,70.1,56.5,62.5,57.1,52.1,93,66,34,30.33,30.22,6,1,11,0.00
2013-5-27,86.7,71.8,60.4,65.8,60.9,57.8,92,71,47,30.32,30.24,4,1,7,0.00
2013-5-28,86.2,74.1,64.4,68.1,63.0,60.3,91,70,47,30.33,30.25,5,1,12,0.00
2013-5-29,86.2,74.1,65.7,66.7,63.6,61.3,89,71,52,30.33,30.22,4,1,7,0.00
2013-5-30,88.2,75.7,66.0,70.7,66.0,61.7,89,73,52,30.33,30.24,4,1,9,0.00
2013-5-31,87.8,77.1,69.1,72.0,67.2,65.4,89,73,52,30.30,30.21,4,1,7,0.00
2013-6-1,86.5,76.6,68.5,70.7,66.4,63.9,89,72,54,30.23,30.14,4,1,7,0.00
2013-6-2,86.7,77.9,71.6,71.8,67.9,64.7,81,72,56,30.17,30.01,7,2,12,0.04
2013-6-3,82.6,76.1,70.2,73.8,69.5,62.6,87,80,67,30.04,29.92,5,1,11,0.95
2013-6-4,87.3,76.9,71.8,71.8,69.0,63.5,87,77,58,30.10,29.97,4,0,8,0.01
2013-6-5,83.3,75.3,70.9,70.7,67.4,63.1,88,77,60,30.11,30.01,5,0,11,0.69
2013-6-6,79.2,74.6,70.5,70.0,65.0,22.4,86,75,13,30.04,29.76,5,0,7,1.94
2013-6-7,88.3,78.1,73.6,69.5,62.6,22.7,80,63,14,29.93,29.57,12,3,21,0.19
2013-6-8,92.8,81.1,76.1,70.9,68.2,65.6,78,66,48,30.17,29.92,6,2,11,0.00
2013-6-9,89.4,79.9,74.1,70.9,68.8,55.4,85,70,53,30.20,29.94,8,1,15,6.84
2013-6-10,83.8,77.2,70.0,69.8,68.0,61.7,84,74,62,30.18,30.05,10,1,22,0.52
2013-6-11,94.8,79.7,70.9,71.2,65.5,23.2,84,65,15,30.11,30.00,5,1,10,0.00
2013-6-24,87.3,81.4,78.1,71.8,68.3,66.5,75,65,58,30.25,30.16,4,1,7,0.00
2013-6-25,93.2,81.4,74.8,71.6,68.6,65.9,83,66,49,30.19,30.08,5,1,11,0.01
2013-6-26,97.2,79.6,71.8,73.0,68.1,62.8,84,69,44,30.11,29.97,6,1,11,0.03
2013-6-27,96.3,82.1,75.7,73.9,70.2,64.0,84,68,47,30.02,29.82,6,2,16,0.02
2013-6-28,94.8,84.2,78.6,72.6,68.9,64.9,70,60,49,29.86,29.69,8,2,18,0.00
2013-6-29,90.9,80.6,73.4,71.3,67.2,63.0,77,64,52,29.80,29.71,7,2,15,0.04
2013-6-30,86.0,77.9,72.0,72.6,67.8,63.2,83,71,58,29.88,29.75,7,1,18,0.03
2013-7-1,85.5,80.8,76.5,82.6,71.6,65.8,99,75,61,29.95,29.84,8,2,17,0.48
2013-7-2,83.8,79.1,73.2,82.6,76.8,72.3,99,93,83,30.17,29.94,7,2,14,0.18
2013-7-3,86.0,79.3,75.4,79.9,77.4,74.5,99,94,78,30.23,30.13,6,1,12,0.25
2013-7-4,88.9,80.8,77.2,80.8,77.6,75.6,99,90,75,30.24,30.18,6,2,12,0.10
2013-7-5,89.2,81.0,76.1,81.3,77.1,73.9,99,88,73,30.25,30.18,6,1,9,0.31
2013-7-6,87.8,79.4,73.4,80.4,75.4,72.8,99,88,73,30.24,30.15,7,1,11,0.02
2013-7-7,91.9,80.6,73.6,78.7,74.1,71.4,99,82,59,30.21,30.13,4,1,10,0.00
2013-7-8,91.6,79.4,71.2,77.8,73.4,70.6,99,83,61,30.21,30.14,4,1,9,0.00
2013-7-9,93.0,80.6,73.2,77.9,74.4,72.1,99,83,57,30.22,30.12,7,1,11,0.00
2013-7-10,92.7,81.3,73.2,76.7,74.0,71.8,98,80,57,30.16,30.00,6,1,9,0.00
2013-7-11,91.4,82.2,77.5,78.7,74.8,72.8,90,79,62,30.03,29.91,8,2,16,0.00
2013-7-12,81.7,76.3,73.2,77.0,74.7,72.1,99,95,81,29.98,29.89,3,0,8,0.53
2013-7-13,89.6,78.4,73.9,80.4,75.5,73.6,99,91,70,30.10,29.95,5,1,8,0.69
2013-7-14,90.9,80.1,72.9,77.9,75.1,71.6,98,86,65,30.24,30.09,6,1,13,0.38
2013-7-15,92.7,81.1,74.7,79.6,76.3,74.1,99,86,64,30.26,30.19,8,1,16,0.01
2013-7-16,95.0,81.2,74.7,78.5,74.8,71.2,99,83,55,30.29,30.22,4,0,11,0.00
2013-7-17,101.7,81.5,74.1,79.8,74.1,69.4,98,81,44,30.24,30.11,7,1,14,0.02
2013-7-18,93.4,80.4,72.0,77.3,73.4,70.7,98,81,55,30.18,30.09,5,1,10,0.00
2013-7-19,92.7,81.6,75.4,76.7,74.0,71.3,94,79,57,30.16,30.04,8,1,14,0.00
2013-7-20,90.1,80.7,76.3,77.2,74.2,71.8,93,81,61,30.11,30.01,8,2,16,0.21
2013-7-21,91.2,79.2,75.0,78.5,73.9,71.4,95,84,61,30.07,29.96,5,1,11,0.49
2013-7-22,93.6,82.1,76.5,75.8,73.3,70.1,91,76,53,30.03,29.93,7,2,13,0.00
2013-7-23,93.9,83.1,77.5,74.7,72.5,68.8,87,72,49,29.96,29.82,5,1,11,0.00
2013-7-24,88.0,80.6,75.7,78.5,73.5,70.1,92,80,65,29.86,29.77,4,0,8,0.03
2013-7-25,95.7,80.1,74.5,78.5,74.7,68.8,97,85,53,29.99,29.79,4,0,9,0.21
2013-7-26,92.3,79.5,72.3,78.7,74.6,71.2,98,86,62,30.08,29.98,4,0,11,0.00
2013-7-27,89.6,80.5,74.5,78.3,75.0,73.3,97,84,65,30.06,29.93,4,1,8,0.00
2013-7-28,90.5,81.5,75.9,77.0,75.0,71.9,95,82,62,30.03,29.93,5,0,8,0.00
2013-7-29,96.3,80.0,75.0,78.6,75.5,71.8,97,87,49,30.17,30.02,4,0,7,0.06
2013-7-30,93.9,79.9,73.9,78.5,75.4,73.0,98,87,61,30.19,30.12,4,0,6,0.00
2013-7-31,89.4,79.2,75.0,78.9,75.8,73.5,97,90,64,30.14,30.03,4,0,7,1.79
2013-8-1,87.3,78.7,73.0,75.3,73.9,71.8,98,86,64,30.04,29.95,5,1,11,0.10
2013-8-2,92.7,81.7,75.9,78.0,74.9,73.2,93,80,58,30.06,29.94,7,1,16,5.46
2013-8-3,92.8,81.9,75.4,79.5,75.8,73.5,96,83,59,30.05,29.95,6,0,9,0.48
2013-8-4,98.2,83.8,77.4,78.3,75.1,71.7,95,77,49,30.01,29.90,4,0,7,0.00
2013-8-5,89.1,79.8,74.1,74.4,70.2,64.9,94,74,50,30.07,29.97,6,0,11,0.00
2013-8-6,90.0,79.4,72.5,72.3,69.8,67.4,91,73,54,30.07,29.96,4,0,6,0.00
2013-8-7,96.6,79.7,71.4,74.3,71.1,67.5,95,77,47,30.09,30.02,4,0,10,0.00
2013-8-8,87.1,79.1,73.4,80.1,75.1,71.1,98,88,69,30.09,30.01,4,0,7,0.13
2013-8-9,92.7,83.1,77.2,77.9,75.7,73.0,95,79,57,30.14,30.03,6,1,12,0.06
2013-8-10,93.2,83.4,76.5,78.3,75.7,73.1,96,79,57,30.15,30.08,8,1,14,0.00
2013-8-11,100.4,85.6,79.5,78.7,76.3,69.8,92,76,41,30.16,30.06,6,1,13,6.13
2013-8-12,101.1,86.5,79.7,79.4,76.1,70.8,86,73,41,30.11,29.98,6,1,11,0.00
2013-8-13,100.0,86.1,77.7,79.7,76.7,72.0,93,75,43,30.00,29.86,8,2,14,0.00
2013-8-14,96.3,80.1,73.9,79.4,75.0,72.9,98,85,52,30.01,29.87,5,1,11,2.65
2013-8-15,73.8,69.0,65.1,72.9,68.0,64.5,99,97,94,30.10,29.97,4,0,11,1.30
2013-8-16,83.5,73.0,67.5,76.5,70.5,66.7,98,92,79,30.10,30.01,4,0,9,0.06
2013-8-17,88.2,75.4,72.1,74.4,72.0,70.2,98,90,64,30.17,30.02,5,0,11,0.02
2013-8-18,92.5,79.0,71.8,78.6,73.6,70.3,98,85,58,30.20,30.12,4,0,9,0.11
2013-8-19,93.2,80.0,75.2,79.4,75.2,73.4,98,87,56,30.16,30.05,4,1,10,0.24
2013-8-20,91.4,81.2,74.5,78.0,75.5,73.3,98,84,62,30.17,30.06,4,1,6,0.00
2013-8-21,91.4,80.9,74.1,80.3,75.4,73.5,98,85,61,30.23,30.13,4,0,8,0.00
2013-8-22,95.5,80.8,75.4,76.5,74.2,69.8,97,82,50,30.17,30.04,4,0,7,0.02
2013-8-23,98.2,81.6,74.7,76.6,73.8,69.3,94,80,43,30.07,29.97,4,0,8,0.36
2013-8-24,90.1,78.1,72.7,75.7,72.4,68.9,95,83,56,30.22,30.02,5,0,9,0.00
2013-8-25,89.8,75.4,67.8,70.0,67.1,62.8,95,77,45,30.30,30.21,4,0,16,0.00
2013-8-26,89.8,75.3,68.0,71.3,67.4,63.9,94,78,52,30.27,30.14,4,0,9,0.00
2013-8-27,91.6,75.9,67.8,73.5,67.1,62.0,99,77,42,30.16,30.03,3,0,8,0.00
2013-8-28,84.9,76.8,72.7,72.6,70.4,67.2,91,81,66,30.05,29.96,4,0,7,0.00
2013-8-29,99.0,82.4,75.7,77.9,73.4,69.4,96,76,43,29.99,29.87,6,1,12,0.17
2013-8-30,90.3,79.3,74.7,79.2,75.2,73.2,98,88,65,30.01,29.91,4,0,11,0.00
2013-8-31,96.1,80.4,73.2,78.8,74.5,69.4,98,84,47,30.00,29.90,4,0,9,11.43
2013-9-1,93.6,83.1,77.2,78.7,75.8,71.2,95,80,55,29.97,29.87,7,1,13,0.00
2013-9-2,97.5,81.2,71.6,78.9,74.7,67.6,97,82,49,29.96,29.85,9,1,12,1.83
2013-9-3,98.1,81.3,74.1,79.6,74.3,71.6,97,81,47,29.97,29.85,7,1,10,0.17
2013-9-4,97.3,80.1,72.0,78.5,73.9,70.7,97,83,49,30.09,29.96,4,0,8,0.01
2013-9-5,94.3,79.5,74.8,76.9,74.9,72.7,97,87,55,30.11,30.03,4,0,5,0.00
2013-9-6,73.6,73.0,72.7,72.4,71.7,71.0,96,96,94,30.05,30.04,2,0,2,0.00
2013-9-15,91.9,82.6,76.6,76.6,74.8,71.5,94,78,59,30.16,30.06,4,0,9,0.66
2013-9-16,96.3,80.3,73.4,78.6,74.5,68.1,99,85,48,30.14,30.03,4,0,11,0.42
2013-9-17,69.8,69.1,68.5,64.7,64.5,64.2,87,85,83,30.19,30.19,0,0,0,0.00
2013-9-18,81.0,69.5,62.4,64.9,60.5,53.6,94,75,47,30.23,30.14,7,0,14,0.00
2013-9-19,89.1,72.7,64.4,70.4,65.1,60.2,96,78,50,30.17,30.09,4,0,8,0.00
2013-9-20,89.8,73.7,65.3,71.9,67.0,63.1,99,82,49,30.10,29.96,0,0,0,0.00
2013-9-21,89.1,76.8,68.2,76.6,70.4,67.6,99,82,55,29.97,29.74,0,0,5,0.00
2013-9-22,84.2,74.4,68.4,75.0,70.2,67.2,98,87,67,29.88,29.71,0,0,0,0.11
2013-9-23,87.6,71.1,62.6,68.0,63.7,59.1,99,80,45,30.05,29.87,0,0,2,0.00
2013-9-24,85.1,70.9,62.6,67.6,63.9,60.8,97,80,51,30.06,29.92,0,0,2,0.00
2013-9-25,80.1,72.3,66.7,70.1,67.1,63.7,96,84,68,29.92,29.80,0,0,0,0.00
2013-9-26,75.6,68.5,61.7,70.2,66.2,60.9,99,93,78,29.96,29.79,0,0,0,0.81
2013-9-27,86.4,69.1,60.6,68.5,62.9,58.9,98,82,54,30.12,29.95,0,0,0,0.00
2013-9-28,81.7,67.4,59.0,66.3,61.2,57.2,94,81,61,30.15,30.08,0,0,0,0.00
2013-9-29,83.5,67.6,59.4,61.9,60.0,55.9,99,79,45,30.11,30.01,0,0,0,0.00
2013-9-30,84.0,65.6,56.8,63.9,59.8,55.8,99,84,51,30.08,29.99,0,0,0,0.00
2013-10-1,86.5,68.6,60.1,62.9,60.9,56.3,99,80,44,30.14,30.05,0,0,0,0.00
2013-10-2,91.4,70.6,59.9,67.4,63.4,59.4,99,81,42,30.16,30.08,0,0,0,0.00
2013-10-3,88.9,72.3,63.5,74.1,68.0,62.6,99,88,56,30.15,30.08,4,0,9,0.31
2013-10-4,92.1,73.9,66.2,74.6,69.9,64.2,99,89,46,30.15,30.07,4,0,6,0.00
2013-10-5,92.5,75.1,67.5,74.1,69.6,62.9,99,86,47,30.13,30.04,4,0,8,0.00
2013-10-6,91.2,76.0,68.0,79.8,72.5,67.7,99,90,64,30.06,29.93,4,1,8,0.45
2013-10-7,89.1,76.2,73.0,80.2,74.7,72.1,99,95,73,29.94,29.81,6,0,8,0.52
2013-10-8,74.5,66.8,59.5,74.2,65.1,58.1,99,94,88,30.07,29.84,10,2,18,0.00
2013-10-9,78.3,65.7,57.7,65.6,60.3,56.2,97,84,63,30.10,30.02,10,3,14,0.00
2013-10-10,81.1,66.9,58.3,64.8,60.6,56.4,98,82,55,30.06,29.95,8,2,14,0.00
2013-10-11,86.4,71.9,64.2,67.6,64.2,61.3,98,79,48,30.02,29.91,4,0,8,0.00
2013-10-12,88.0,72.2,65.7,72.5,67.4,62.9,99,86,49,30.06,29.94,4,0,7,0.00
2013-10-13,83.1,70.8,65.8,70.0,67.4,65.0,99,89,64,30.14,30.04,6,1,10,0.00
2013-10-14,78.3,70.4,66.6,72.5,67.3,65.3,96,90,77,30.12,30.04,6,2,10,0.00
2013-10-15,80.1,67.8,63.0,65.4,62.6,58.8,98,85,56,30.11,30.01,7,1,14,0.00
2013-10-16,76.1,67.3,63.7,68.4,64.8,62.8,99,92,76,30.05,29.99,0,0,0,0.00
2013-10-20,68.2,68.2,68.0,61.6,61.4,61.4,80,79,79,30.02,30.02,0,0,0,0.00
2013-10-22,67.8,64.5,62.6,64.3,62.6,61.6,97,94,84,29.92,29.86,2,0,3,0.02
2013-10-23,78.3,65.4,58.1,62.6,55.0,40.9,99,74,34,30.02,29.78,9,2,19,0.03
2013-10-24,72.7,55.4,46.4,50.4,42.0,33.5,99,64,29,30.20,30.02,5,1,10,0.00
2013-10-25,77.4,54.3,46.0,55.1,45.3,38.5,99,75,41,30.35,29.99,6,1,11,17.27
2013-10-26,73.2,53.2,40.6,50.9,42.9,36.8,99,71,40,30.33,30.15,4,1,9,0.00
2013-10-27,80.6,58.2,43.9,57.7,49.6,41.3,99,78,36,30.16,30.08,4,0,7,17.27
2013-10-28,79.5,63.0,55.8,63.5,58.5,55.3,99,87,53,30.27,30.13,4,0,7,0.00
2013-10-29,84.6,63.2,53.2,63.9,57.8,52.7,99,86,43,30.33,30.24,4,0,7,0.00
2013-10-30,84.9,64.6,55.2,67.3,59.4,54.4,99,86,42,30.33,30.19,4,0,5,0.00
2013-10-31,84.6,67.8,56.1,70.8,64.4,55.8,99,90,60,30.22,30.00,4,0,13,0.07
2013-11-1,80.4,74.4,69.8,73.2,71.3,69.2,98,90,72,30.01,29.76,7,2,16,0.05
2013-11-2,74.8,65.8,54.9,71.3,61.5,51.9,99,87,51,29.96,29.75,4,0,11,0.73
2013-11-3,72.7,57.1,48.6,55.2,46.7,39.5,97,71,35,30.30,29.95,6,1,13,0.00
2013-11-4,73.0,56.1,48.7,51.3,45.8,38.8,90,71,32,30.43,30.28,5,1,13,0.00
2013-11-5,66.2,54.2,43.5,60.4,51.8,41.4,99,92,76,30.42,30.31,6,2,14,0.00
2013-11-6,80.4,65.5,55.9,69.4,62.5,55.7,99,91,67,30.31,30.09,4,0,10,0.01
2013-11-7,82.6,68.4,62.1,69.7,65.2,59.7,99,90,58,30.09,29.94,4,0,8,0.01
2013-11-8,67.5,52.8,40.6,59.7,39.7,31.9,99,65,31,30.30,30.04,8,2,14,0.00
2013-11-9,70.0,54.1,40.8,54.8,48.0,40.1,99,81,54,30.34,30.23,4,0,8,0.00
2013-11-10,75.2,59.7,50.9,59.1,52.7,46.6,99,81,42,30.26,30.15,4,0,9,0.00
2013-11-11,75.2,56.1,48.2,54.7,49.2,40.7,99,80,47,30.28,30.16,4,0,8,0.00
2013-11-12,77.0,58.0,43.0,58.2,47.6,31.6,99,72,37,30.33,30.01,9,1,21,0.00
2013-11-13,54.5,41.2,33.1,33.5,26.5,15.0,84,59,23,30.51,30.32,9,2,21,0.00
2013-11-14,68.4,46.7,32.4,48.0,37.9,24.7,99,74,45,30.49,30.31,5,0,7,0.00
2013-11-15,67.6,58.3,46.0,62.8,56.8,45.2,99,95,84,30.32,30.15,4,0,6,0.03
2013-11-16,82.8,64.7,58.1,66.6,61.1,42.2,99,90,53,30.22,29.83,4,0,8,18.18
2013-11-17,82.0,66.6,56.7,74.9,65.3,56.4,99,96,74,30.20,30.01,3,0,6,0.02
2013-11-18,87.8,72.8,63.5,73.5,69.0,53.1,99,89,59,30.01,29.84,4,1,9,0.00
2013-11-19,66.2,55.0,45.3,52.9,41.4,32.5,92,62,34,30.20,29.92,7,1,12,0.00
2013-11-20,62.1,52.8,45.1,51.2,45.6,38.4,85,77,68,30.32,30.18,6,1,12,0.00
2013-11-21,76.8,60.0,52.2,64.8,56.1,48.0,99,88,64,30.38,30.30,5,1,11,0.00
2013-11-22,77.7,66.0,59.2,71.2,63.8,58.9,99,93,74,30.35,30.17,2,0,5,0.01
2013-11-23,74.3,64.4,57.7,74.0,63.0,53.8,99,96,83,30.17,29.81,5,1,8,18.28
2013-11-24,58.1,43.8,32.4,54.1,27.1,14.7,87,53,25,30.52,30.10,11,2,18,0.01
2013-11-25,56.5,42.4,31.6,51.3,29.7,10.3,99,63,37,30.51,30.25,6,1,14,0.00
2013-11-26,77.4,60.2,45.9,70.6,59.6,45.1,99,98,90,30.25,29.61,10,2,17,19.29
2013-11-27,69.1,54.6,38.8,68.2,52.5,36.4,99,93,82,30.21,29.52,10,3,20,0.14
2013-11-28,55.6,37.8,30.4,36.4,28.4,19.6,99,72,29,30.49,30.21,6,1,10,0.00
2013-11-29,63.0,43.9,32.2,44.4,36.1,30.9,99,77,43,30.52,30.44,4,0,10,0.00
2013-11-30,64.0,47.9,36.5,49.2,40.3,31.3,88,76,53,30.52,30.30,7,1,14,0.00
2013-12-1,63.7,53.6,46.8,56.5,49.9,43.3,98,87,77,30.31,30.00,5,0,8,0.00
2013-12-2,68.9,55.0,45.1,54.2,50.6,44.3,99,87,49,30.00,29.82,6,0,8,0.00
2013-12-3,71.8,56.1,44.8,57.9,51.4,44.0,99,86,48,29.99,29.88,4,0,8,0.00
2013-12-4,82.6,64.8,56.5,68.7,61.1,56.2,99,89,57,30.12,29.97,4,0,9,0.01
2013-12-5,79.5,67.4,57.7,73.1,64.8,57.5,99,92,72,30.18,30.09,9,1,11,0.00
2013-12-6,81.5,71.1,66.7,71.9,68.1,65.6,99,91,73,30.18,30.09,9,2,13,0.00
2013-12-7,82.9,64.6,49.1,70.8,62.4,48.8,99,93,68,30.35,30.11,7,1,11,0.45
2013-12-8,49.6,47.0,45.3,49.4,46.6,44.5,99,98,97,30.33,30.23,5,1,9,0.05
2013-12-9,81.0,57.4,45.3,68.8,55.7,44.5,99,95,67,30.26,30.06,4,0,5,0.00
2013-12-10,74.1,63.5,47.1,69.6,60.7,46.7,99,91,69,30.31,29.98,8,1,13,0.02
2013-12-11,63.0,47.8,38.1,46.9,40.6,34.0,99,78,40,30.44,30.29,4,0,8,0.00
2013-12-12,66.2,44.9,34.0,44.7,35.4,26.2,99,74,31,30.41,29.86,8,1,14,19.96
2013-12-13,63.0,44.8,31.5,43.8,35.6,29.4,99,74,34,30.40,30.24,5,0,8,0.00
2013-12-14,70.9,61.4,47.3,69.0,59.8,43.8,99,95,78,30.24,29.80,11,2,17,0.74
2013-12-15,66.4,57.5,45.5,65.4,53.9,43.3,99,88,71,30.13,29.79,10,1,21,0.06
2013-12-16,68.4,48.5,36.9,48.3,42.3,33.0,99,83,33,30.23,30.13,4,0,8,0.00
2013-12-17,72.5,54.4,42.6,48.3,41.3,33.9,92,65,27,30.23,30.09,6,1,11,0.00
2013-12-18,64.0,49.6,35.4,40.8,36.3,25.9,95,63,28,30.33,30.09,7,1,11,0.00
2013-12-19,70.9,48.1,33.3,50.4,42.3,33.0,99,84,45,30.36,30.24,4,0,6,0.00
2013-12-20,81.0,59.4,46.6,64.5,55.0,46.3,99,88,49,30.27,30.17,5,0,8,0.00
2013-12-21,79.7,66.2,53.6,71.1,63.6,52.8,99,92,73,30.19,30.00,5,1,8,20.76
2013-12-22,80.6,71.7,67.3,73.7,69.5,66.7,99,93,76,30.15,30.09,11,2,22,0.00
2013-12-23,78.1,68.4,59.0,71.8,67.1,58.7,99,96,80,30.14,30.06,9,2,16,0.28
2013-12-24,63.7,53.5,42.1,58.9,46.1,34.7,99,78,43,30.36,30.07,9,2,16,0.05
2013-12-25,57.4,41.8,32.9,39.4,31.3,23.9,81,67,51,30.46,30.34,7,1,13,0.00
2013-12-26,52.2,45.5,41.0,46.8,41.5,34.0,98,86,75,30.32,30.23,6,2,14,0.00
2013-12-27,65.5,48.7,40.5,40.7,37.3,31.3,87,67,32,30.41,30.30,4,1,8,0.00
2013-12-28,68.7,51.3,37.9,57.3,45.6,34.7,99,82,57,30.39,30.04,4,0,7,0.03
2013-12-29,77.7,65.3,53.6,70.0,61.8,50.7,99,89,60,30.04,29.81,8,2,16,0.32
2013-12-30,64.6,53.0,45.3,51.7,47.8,44.5,99,84,60,30.17,29.99,4,0,8,0.00
2013-12-31,57.7,51.7,44.8,48.9,46.0,40.7,97,82,60,30.37,30.14,8,1,14,0.00
2014-1-1,56.1,48.0,42.8,50.3,46.0,42.3,99,93,78,30.36,30.14,3,0,7,0.16
2014-1-2,59.9,53.0,48.0,59.6,52.3,44.4,99,98,80,30.14,29.66,7,1,14,0.72